Dewpoint
53 53 53 52 51 51 51 50 50 50 50 50 53 55 55 56 55 54 52 50 49 49 49 49 51 51 25 14 21 22 40 39 35 42 39 39 35 35 31 31 31 29 27 25 25 23 21
52 53 53 52 51 50 50 50 50 49 49 49 49 52 54 53 54 52 51 49 45 45 48 50 52 41 19 8 22 21 26 32 30 36 32 34 36 35 31 29 29 28 27 26 26 23 22
52 53 53 52 51 50 50 49 49 49 48 48 48 48 50 51 51 50 50 50 47 48 49 47 50 12 15 16 16 22 23 29 28 28 31 32 36 34 31 28 30 28 27 27 26 26 23
52 53 53 52 51 50 49 49 48 48 48 47 46 46 47 48 49 51 50 51 51 48 50 49 38 11 12 19 24 21 21 28 26 32 28 35 35 32 30 30 27 25 26 27 26 26 23
53 52 53 52 51 50 49 49 48 47 47 46 45 46 45 47 49 49 49 49 47 47 44 41 15 7 7 25 19 21 19 21 25 29 25 32 34 31 30 28 26 25 22 23 23 26 23
53 52 52 52 52 51 49 48 48 47 46 46 45 44 45 47 47 46 47 46 45 33 21 13 12 10 13 15 19 22 18 22 24 26 29 27 32 30 29 26 17 21 21 23 21 19 23
54 53 52 52 52 51 50 48 47 46 46 45 44 45 45 45 45 46 35 22 16 18 16 7 12 11 14 18 23 22 19 22 21 16 19 13 28 25 25 25 21 23 21 21 21 12 17
55 54 53 52 52 51 50 49 47 46 45 42 44 44 46 46 46 43 30 19 22 16 11 16 16 14 15 20 16 20 18 15 15 10 8 13 18 10 14 11 11 10 11 9 8 7 6
57 55 54 53 52 52 51 49 47 45 43 42 46 45 44 45 44 34 27 26 36 27 14 12 17 13 15 14 11 13 14 13 8 5 5 5 1 1 3 3 10 6 12 7 8 2 1
58 57 56 54 53 52 52 50 48 45 42 42 43 44 45 45 30 31 30 33 37 29 19 17 14 14 16 18 9 16 16 12 9 3 5 3 1 -2 -1 1 5 2 4 5 2 2 -3
58 57 56 56 55 53 52 51 48 47 43 45 43 42 44 41 23 27 32 35 39 27 20 16 13 15 17 12 14 8 15 9 5 3 0 -0 -3 -3 -2 0 7 4 5 3 2 -1 -0
59 58 57 56 55 55 53 52 49 48 44 44 45 43 42 35 34 36 40 40 30 25 18 15 13 10 9 12 11 12 5 7 9 4 4 3 4 2 4 9 8 7 3 5 9 6 -1
59 58 57 57 56 55 54 54 51 49 45 46 44 43 39 37 28 37 40 31 28 24 16 12 11 9 7 7 8 8 5 -5 -4 -1 -8 0 1 5 6 2 7 4 -0 2 1 3 1
59 58 58 57 56 56 55 54 51 49 45 43 44 37 35 32 34 36 33 32 25 21 12 13 11 8 5 6 7 9 3 1 1 3 0 2 2 2 5 4 3 3 4 10 -4 7 3
59 59 58 58 57 57 55 54 53 51 48 44 37 28 27 28 31 34 34 30 27 26 12 9 9 4 4 7 5 6 5 2 1 5 4 4 -1 6 7 7 4 5 -2 16 7 6 0
59 58 58 58 58 57 56 55 53 51 47 44 27 25 26 29 30 29 34 32 26 14 11 6 21 8 12 4 7 4 6 6 6 9 14 10 8 7 6 8 10 10 12 4 12 2 7
59 59 59 59 58 57 56 56 53 51 47 38 29 30 28 31 28 27 31 29 17 14 14 9 11 9 5 5 4 2 9 10 9 6 8 9 8 5 4 3 4 7 10 12 11 12 7
58 58 58 58 58 57 56 56 53 49 44 36 34 38 34 30 26 22 24 22 23 15 15 12 8 7 8 5 5 5 8 7 12 9 7 10 7 2 4 5 5 8 8 6 5 0 3
58 58 58 58 57 57 56 55 53 48 41 39 40 35 33 31 31 23 19 17 17 16 15 12 11 11 9 7 15 14 13 13 12 9 7 12 9 7 13 9 5 4 7 8 8 4 1
57 57 57 56 56 56 56 54 52 47 42 43 38 34 29 29 23 27 20 20 21 22 19 15 13 11 11 9 15 20 24 14 14 12 21 16 3 13 16 15 7 3 6 11 13 10 7
56 56 56 55 55 56 55 54 52 48 45 45 40 35 32 28 28 26 30 26 21 20 19 16 15 17 17 15 18 15 18 13 12 17 18 13 7 4 5 3 6 6 7 7 8 11 12
54 53 52 54 54 55 54 53 50 46 46 43 37 34 32 27 26 29 31 32 27 28 27 21 20 20 19 16 21 17 13 13 16 13 12 11 6 3 1 7 8 7 8 9 9 9 9
52 51 51 52 52 54 54 52 49 47 46 41 38 37 38 29 27 29 30 29 31 31 30 25 23 21 16 17 17 16 16 12 15 17 17 15 6 5 4 1 -0 3 5 9 8 4 8
49 49 49 50 51 52 53 51 48 46 45 41 39 39 35 31 29 30 30 31 31 31 28 25 23 22 20 18 17 14 8 8 7 13 17 15 15 15 3 -2 -2 6 -5 1 7 3 3
47 48 49 50 52 52 53 51 47 46 44 39 39 40 36 30 31 30 31 30 28 29 24 24 21 21 21 25 24 11 9 6 1 7 12 13 16 9 3 -9 4 2 -4 -2 -1 -0 -13
46 48 49 52 52 52 53 50 48 47 45 41 40 40 37 33 29 29 28 30 29 28 20 19 20 24 25 25 21 13 10 7 2 -2 6 11 11 14 4 -0 -3 2 -3 -9 -11 -2 -7
46 48 52 54 53 53 52 50 48 47 44 41 37 38 39 30 23 24 30 31 27 18 13 13 14 19 22 20 17 10 10 1 5 1 -1 3 5 7 8 7 3 1 -3 -10 -4 2 -4
45 48 50 53 52 52 51 49 48 47 44 40 34 35 38 31 24 22 25 25 21 19 22 12 19 13 17 15 13 9 1 3 -1 -3 -2 0 2 0 4 4 -1 -1 -5 1 -2 -8 -6
45 47 49 50 52 51 51 50 48 47 44 41 36 32 29 27 19 21 21 20 18 21 21 18 20 8 18 11 9 8 7 4 1 6 -3 4 6 5 7 4 -7 -9 -8 -9 -8 -6 -4
Lifted_Index
10 11 11 11 12 12 12 12 13 13 13 13 12 11 10 10 10 11 12 13 13 14 14 15 14 15 14 12 12 13 11 9 8 8 8 8 8 8 8 8 8 8 9 9 9 8 8
11 11 11 11 12 12 12 13 13 13 13 13 13 12 11 11 11 12 13 14 14 15 15 15 15 15 13 12 13 14 12 10 9 8 8 8 8 8 8 8 8 8 9 9 9 9 8
11 11 11 11 12 12 12 13 13 13 13 14 14 14 13 12 12 13 13 14 15 15 15 15 15 15 13 13 15 15 12 10 9 9 8 8 8 8 8 8 8 8 8 8 8 9 8
11 11 11 11 12 12 13 13 13 14 14 14 14 15 14 14 14 14 14 15 15 16 16 16 16 14 13 15 16 15 13 12 10 9 9 8 8 8 8 8 8 7 6 6 7 8 9
10 11 11 11 12 12 13 13 14 14 15 15 15 15 15 15 15 15 15 16 16 17 17 17 16 13 13 15 16 15 14 13 11 10 9 9 8 8 8 7 6 5 4 4 6 8 9
10 10 11 11 11 12 13 13 14 14 15 15 15 15 15 15 16 16 16 16 15 15 15 15 13 12 12 14 15 15 14 13 12 10 9 9 8 7 7 6 5 4 4 4 6 8 9
9 10 10 11 11 12 13 13 14 15 15 15 15 15 14 15 16 16 15 13 11 11 12 11 11 12 13 15 15 15 14 13 12 10 9 9 7 7 7 7 6 5 5 5 7 8 9
8 9 10 11 11 12 12 13 14 15 15 15 15 15 14 14 15 15 13 11 11 11 10 10 12 13 15 16 15 15 15 13 12 10 9 8 7 8 9 8 8 7 6 6 7 9 9
8 8 9 10 11 12 12 13 14 15 15 15 15 15 14 13 13 12 10 11 14 13 10 9 12 14 15 15 14 14 15 14 11 9 9 8 8 9 9 8 7 7 6 6 7 8 8
7 7 8 9 10 11 12 13 14 15 15 15 15 14 14 12 10 9 10 13 16 13 9 8 10 13 14 13 12 14 15 13 11 9 8 8 9 9 8 8 7 7 7 7 6 6 6
6 6 7 8 9 10 11 12 13 14 15 15 15 14 13 11 9 9 11 15 15 10 6 7 10 12 12 10 10 12 14 13 11 9 8 8 8 8 7 8 8 7 7 6 5 4 4
5 6 7 7 8 9 10 11 12 13 14 14 14 13 12 10 9 10 13 13 11 7 5 6 9 9 8 7 7 9 11 11 10 8 7 7 8 8 7 8 8 7 6 5 4 3 3
4 5 6 7 7 8 8 9 11 13 14 14 14 12 11 10 10 12 12 9 7 5 6 6 7 6 6 5 6 6 7 7 6 5 5 5 6 7 7 7 6 6 4 3 2 2 1
3 4 5 6 6 7 7 7 9 12 13 14 14 12 10 10 11 11 9 6 5 5 6 6 6 5 5 5 5 5 5 4 4 4 4 4 4 6 7 6 5 4 3 2 2 1 1
3 3 4 4 5 5 5 5 7 10 12 13 12 10 9 10 11 9 7 5 5 5 5 5 5 4 4 4 5 4 4 5 5 5 5 4 4 5 6 6 6 5 4 4 3 2 2
2 3 3 4 4 4 4 4 5 8 11 12 10 7 8 9 9 7 5 5 5 5 5 5 4 4 4 4 4 4 4 5 5 6 6 5 5 6 6 6 6 5 5 4 3 2 1
2 2 3 3 3 3 3 3 4 6 9 10 7 5 7 9 7 5 4 4 5 5 5 4 4 4 4 4 4 4 5 5 5 6 6 6 5 5 6 6 6 5 5 4 4 3 3
2 2 3 3 3 3 3 3 3 4 6 6 5 5 7 7 5 3 3 4 4 4 4 4 4 4 4 4 4 5 5 5 6 6 6 6 5 5 5 6 6 6 6 5 5 4 4
2 3 3 3 2 2 2 3 3 3 4 4 4 4 5 5 3 2 3 3 4 4 4 4 4 4 4 4 5 5 5 6 6 6 6 6 6 5 5 6 7 6 6 6 6 5 4
3 3 3 3 2 2 2 2 2 3 3 3 3 3 4 3 2 2 2 3 3 4 4 4 4 4 4 4 5 5 5 6 6 7 7 7 6 5 5 6 6 6 6 6 5 4 3
3 3 4 4 3 3 2 2 2 3 3 4 3 3 3 2 2 2 3 3 4 4 4 4 4 4 4 4 5 5 6 6 7 7 7 7 6 6 5 5 6 6 5 5 4 4 3
5 5 6 6 6 5 4 3 3 3 3 3 3 2 2 2 2 2 3 3 4 4 4 4 4 4 4 5 5 6 7 7 7 7 7 6 6 5 5 5 6 5 5 5 4 4 4
7 7 7 7 7 6 4 3 2 2 2 2 2 2 2 2 2 3 3 4 4 4 4 4 5 5 5 6 7 7 7 7 7 7 7 6 5 5 5 5 5 5 5 5 5 5 5
8 8 8 7 6 6 4 3 2 2 2 2 2 3 3 3 3 3 4 4 4 4 5 5 6 6 7 7 7 7 7 7 7 7 7 6 5 5 5 5 4 5 6 6 6 6 7
8 8 7 6 5 5 4 3 2 2 3 3 3 4 4 4 4 4 4 4 4 5 5 6 7 8 8 8 7 6 6 6 6 6 7 6 5 5 5 4 4 5 7 7 7 7 8
8 7 6 4 4 4 3 3 3 3 4 4 4 4 4 4 4 5 5 5 5 6 6 7 8 8 8 7 6 5 4 5 5 5 6 6 6 5 4 4 4 6 8 8 8 8 9
8 7 5 3 3 3 4 4 4 4 5 5 5 5 5 5 5 6 6 6 6 6 7 7 8 8 7 6 5 4 4 5 5 5 5 5 5 5 4 4 4 6 8 9 8 9 10
8 7 5 3 3 4 4 5 5 6 6 6 6 6 6 6 6 7 7 7 7 7 7 8 7 7 7 6 6 5 5 5 5 5 5 5 5 5 5 4 5 7 9 9 10 11 11
8 7 6 4 4 4 5 6 6 6 6 6 6 6 6 6 6 7 8 8 7 7 8 8 8 7 7 6 6 5 5 6 5 5 5 5 5 5 5 5 6 8 9 11 12 12 12